CW5602 Weather Reports


Display with metric or nautical units.
time (UTC)temp
F
wind
direction
speed
MPH
gust
MPH
rain 1hr
in
rain 24hr
in
rain mn
in
humidity
%
barometer
mb
20260906073703 67 349 0.0 0.0 0.00 0.27 0.00 99 1010.5
20260906070704 67 349 0.0 0.0 0.00 0.27 0.00 99 1010.9
20260906070203 67 349 0.0 0.0 0.00 0.27 0.00 99 1010.8
20260906060704 68 349 0.0 0.0 0.00 0.27 0.00 99 1010.8
20260906060203 68 349 0.0 3.0 0.00 0.27 0.00 98 1010.8
20260906053704 68 349 0.0 2.0 0.00 0.27 0.00 98 1011.2
20260906050704 68 349 1.0 2.0 0.00 0.27 0.00 99 1011.6
20260906050203 68 349 2.0 3.0 0.00 0.27 0.00 99 1011.5
20260906040704 68 349 0.0 0.0 0.00 0.27 0.00 98 1011.8
20260906033204 68 349 0.0 2.0 0.00 0.27 0.27 98 1011.9
20260906020204 69 344 2.0 3.0 0.00 0.27 0.27 99 1010.8
20260906010204 69 194 1.0 3.0 0.00 0.27 0.27 99 1010.8
20260906000204 70 244 2.0 3.0 0.00 0.27 0.27 99 1010.6
20260905233704 70 244 2.0 3.0 0.00 0.27 0.27 99 1010.4
20260905233204 70 244 1.0 3.0 0.00 0.27 0.27 99 1010.6
20260905230703 70 244 2.0 3.0 0.00 0.27 0.27 99 1010.1
20260905220704 70 244 2.0 3.0 0.00 0.27 0.27 99 1010.3
20260905220203 70 244 2.0 3.0 0.00 0.27 0.27 99 1010.3
20260905213703 70 244 2.0 3.0 0.00 0.27 0.27 99 1010.4
20260905213203 70 244 2.0 3.0 0.00 0.27 0.27 99 1010.6
20260905203703 71 244 0.0 2.0 0.00 0.27 0.27 99 1011.2
20260905200704 71 244 0.0 0.0 0.00 0.27 0.27 99 1011.4
20260905200204 71 244 0.0 2.0 0.00 0.27 0.27 99 1011.4
20260905193204 71 244 2.0 2.0 0.01 0.27 0.27 99 1011.5
20260905190704 71 244 1.0 2.0 0.01 0.27 0.27 98 1011.3
20260905183703 71 244 2.0 3.0 0.00 0.26 0.26 98 1012.3
20260905173704 70 209 0.0 3.0 0.25 0.26 0.26 94 1012.6
20260905173204 71 209 1.0 3.0 0.25 0.26 0.26 96 1012.5
20260905170203 74 177 1.0 3.0 0.05 0.05 0.05 96 1012.6
20260905163703 75 177 2.0 3.0 0.01 0.01 0.01 92 1012.2
20260905163203 75 177 2.0 3.0 0.01 0.01 0.01 92 1012.2
20260905160203 77 195 2.0 10.0 0.00 0.00 0.00 89 1012.2
20260905153203 74 179 2.0 6.0 0.00 0.00 0.00 94 1012.4
20260905150204 73 304 0.0 0.0 0.00 0.00 0.00 98 1012.4
20260905143703 72 304 0.0 0.0 0.00 0.00 0.00 99 1012.6
20260905140204 71 306 0.0 0.0 0.00 0.00 0.00 99 1013.1
20260905133704 70 306 0.0 0.0 0.00 0.00 0.00 99 1013.2
20260905130703 69 306 2.0 3.0 0.00 0.00 0.00 99 1013.3
20260905130203 69 234 0.0 0.0 0.00 0.00 0.00 99 1013.3
20260905120704 67 234 0.0 0.0 0.00 0.00 0.00 98 1013.2
20260905103704 68 234 0.0 0.0 0.00 0.00 0.00 97 1012.1
20260905093703 69 234 0.0 0.0 0.00 0.00 0.00 96 1012.0
20260905090204 69 234 1.0 2.0 0.00 0.00 0.00 96 1012.2
20260905083204 69 234 0.0 0.0 0.00 0.00 0.00 96 1012.5
20260905080704 69 234 0.0 0.0 0.00 0.00 0.00 96 1012.8
20260905080203 69 234 0.0 3.0 0.00 0.00 0.00 96 1012.7